Regional Weather Roundup
Issued by NWS

Home | Current Version | Previous Version | Text Only | Print | Product List | Glossary Off
Versions: 1 2 3 4 5 6 7 8 9 10 11 12 13 14 15 16 17 18 19 20 21 22 23 24 25 26 27 28

000
ASUS45 KSLC 241810
RWRUT

UTAH REGIONAL WEATHER ROUNDUP
NATIONAL WEATHER SERVICE SALT LAKE CITY UT
1200 PM MDT THU APR 24 2014

UTZ001>011-023>025-241900-

NORTHERN UTAH

CITY           SKY/WX    TMP DP  RH WIND       PRES   REMARKS
HILL AFB       PTSUNNY   56  23  28 S15G23    30.03F
LOGAN          CLOUDY    55  24  30 S13G22    30.02F
OGDEN          PTSUNNY   57  21  24 S16G24    30.02F
PROVO AIRPORT  NOT AVBL
SALT LAKE CITY PTSUNNY   60  20  21 S20       30.02F
VERNAL         SUNNY     48  12  23 VRB3      30.11F
WENDOVER       MOSUNNY   54  18  24 E7        30.02F
HEBER CITY     MOSUNNY   54  19  26 SW8       30.07F
WEST JORDAN    MOSUNNY   57  28  33 SE18      30.05F

$$

UTZ012>022-026-027-241900-

SOUTHERN UTAH

CITY           SKY/WX    TMP DP  RH WIND       PRES   REMARKS
BRYCE CANYON   SUNNY     51  15  23 SE12      30.16F
CEDAR CITY     SUNNY     63  10  12 S8        30.07F
MILFORD        SUNNY     63  12  13 S16       30.05F
MOAB/CYNLANDS  SUNNY     58   9  14 VRB5      30.10F
PRICE          SUNNY     51  10  19 VRB3      30.12F
ST GEORGE      PTCLDY    66  19  16 NW5       30.04F
KANAB            N/A     63   5  10 SW3       30.12F

$$

REGIONAL REPORTS     COLORADO/ARIZONA

CITY           SKY/WX    TMP DP  RH WIND       PRES   REMARKS
CRAIG, CO      CLOUDY    47  19  33 CALM      30.11F
GRAND JUNCTION SUNNY     54  12  18 NW6       30.12F
RIFLE          SUNNY     51  10  19 VRB7      30.11F
MONTROSE       MOSUNNY   53   9  17 NE8       30.14F
CORTEZ         PTSUNNY   55   9  16 VRB3      30.14F
PAGE, AZ       SUNNY     62  12  14 N8        30.10F
GRAND CANYON   SUNNY     60   9  13 CALM      30.14F
KINGMAN        SUNNY     72   6   7 SW9       30.02S
FLAGSTAFF      SUNNY     59  12  15 SW5       30.16F

$$

REGIONAL REPORTS    NEVADA/IDAHO/WYOMING

CITY           SKY/WX    TMP DP  RH WIND       PRES   REMARKS
LAS VEGAS, NV  SUNNY     73  12   9 CALM      29.96F
ELY            SUNNY     58  15  18 SW9       30.07S
ELKO           PTSUNNY   57  25  29 SW18G28   30.02S
POCATELLO, ID  CLOUDY    52  29  41 SW25G35   30.01R
BURLEY         CLOUDY    52  37  56 S9        29.99F
EVANSTON, WY   CLOUDY    50  20  30 SW17G26   30.05F
ROCK SPRINGS   NOT AVBL

$$



USA.gov is the U.S. government's official web portal to all federal, state and local government web resources and services.